[[{"header":{"parameterUnit":"m.s-1","parameterCategory":1,"la1":30.2991,"la2":30.254,"lo1":-89.0895,"lo2":-89.0444,"dy":0.0017,"dx":0.0017,"nx":28,"ny":28,"refTime":"2024-03-11T03:00:00:Z","depth":0,"parameterNumber":2,"parameterNumberName":"U-component_of_WINDS"},"data":[0,0,0,0,0,0,0,0,0,0,0,0,0,0,0,0,0,0,0,0,0,0,0,0,0,0,0,0,0,0,0,0,0,0,0,0,0,0,0,0,0,0,0,0,0,0,0,0,0,0,0,0,0,0,0,0,0,0,-1.3609,-1.3609,0,-1.3577,-1.3576,-1.3576,-1.3531,-1.353,-1.3529,-1.3528,-1.3495,-1.3495,-1.3495,0,0,0,0,0,0,0,0,0,0,0,0,0,-1.3634,-1.3634,-1.3609,-1.3609,-1.3609,-1.3577,-1.3576,-1.3576,-1.3531,-1.353,-1.3529,-1.3528,-1.3495,-1.3495,-1.3495,0,0,0,0,0,0,0,0,0,0,0,0,0,-1.3614,-1.3634,-1.361,-1.3582,-1.358,-1.3577,-1.3576,-1.3576,-1.3531,-1.353,-1.3529,-1.3528,-1.3495,-1.3495,-1.3495,-1.3516,0,0,-1.3494,-1.3494,0,0,0,0,0,0,0,0,-1.3616,-1.3614,-1.3587,-1.3584,-1.3581,-1.3557,-1.3573,-1.3556,-1.3531,-1.3549,-1.3528,-1.3527,-1.3516,-1.3514,-1.3511,-1.3515,-1.3513,-1.3494,-1.3494,-1.3494,-1.3493,0,0,0,0,0,0,0,-1.3617,-1.3615,-1.3596,-1.3586,-1.3583,-1.3572,-1.3568,-1.3569,-1.354,-1.3548,-1.3544,-1.3541,-1.3515,-1.3511,-1.351,-1.3513,-1.3494,-1.3494,-1.3493,-1.3493,-1.3533,-1.3534,0,0,0,0,0,0,-1.3622,-1.3616,-1.3598,-1.3595,-1.3596,-1.3572,-1.3568,-1.3566,-1.354,-1.3535,-1.3542,-1.3539,-1.3512,-1.351,-1.3508,-1.3532,-1.3494,-1.3493,-1.3493,-1.3532,-1.3533,-1.3534,0,0,0,0,0,0,-1.3623,-1.3621,-1.3599,-1.3605,-1.3601,-1.3573,-1.3571,-1.3566,-1.3562,-1.3535,-1.353,-1.3544,-1.3511,-1.3509,-1.3515,-1.353,-1.3493,-1.3493,-1.353,-1.3532,-1.3534,-1.3579,0,0,0,0,0,0,-1.3624,-1.3622,-1.3629,-1.3605,-1.3601,-1.3606,-1.3572,-1.3566,-1.3562,-1.3557,-1.3536,-1.3531,-1.351,-1.3515,-1.3514,-1.3529,-1.3493,-1.3529,-1.3531,-1.3533,-1.3576,-1.3582,-1.3587,0,0,0,0,0,-1.3625,-1.3643,-1.363,-1.3628,-1.361,-1.3607,-1.3604,-1.358,-1.3563,-1.3571,-1.3554,-1.3532,-1.3529,-1.3516,-1.3515,-1.353,-1.3528,-1.353,-1.3533,-1.3573,-1.3581,-1.3587,0,0,0,0,0,0,-1.367,-1.364,-1.3624,-1.3635,-1.3624,-1.3599,-1.3608,-1.3588,-1.3581,-1.3578,-1.3548,-1.3543,-1.3553,-1.3542,-1.3529,-1.3549,-1.3525,-1.3527,-1.3556,-1.3563,-1.3568,-1.3571,-1.3493,0,0,0,0,0,-1.3681,-1.368,-1.3654,-1.3667,-1.3662,-1.3636,-1.3633,-1.3616,-1.3602,-1.3597,-1.3581,-1.3569,-1.3565,-1.3564,-1.3559,-1.3574,-1.3569,-1.3584,-1.359,-1.3594,-1.3597,-1.3605,-1.3611,-1.3543,-1.3543,-1.3543,0,0,-1.3704,-1.3687,-1.3689,-1.3675,-1.3664,-1.3664,-1.3632,-1.3634,-1.3634,-1.3598,-1.3602,-1.359,-1.3575,-1.3586,-1.359,-1.3577,-1.3615,-1.3598,-1.3602,-1.3602,-1.3608,-1.3614,-1.362,-1.3545,-1.3545,-1.3544,0,0,-1.3746,-1.3733,-1.3742,-1.3732,-1.3716,-1.3698,-1.3701,-1.3679,-1.3669,-1.3673,-1.3646,-1.3646,-1.3641,-1.3631,-1.3625,-1.3665,-1.3644,-1.3664,-1.3694,-1.3702,-1.3707,-1.3711,-1.3726,-1.3731,-1.3667,-1.3667,-1.3667,0,-1.3776,-1.3776,-1.3749,-1.3753,-1.3748,-1.3715,-1.3724,-1.3716,-1.3699,-1.3696,-1.3682,-1.3675,-1.3662,-1.3671,-1.368,-1.3677,-1.3679,-1.3666,-1.3708,-1.3713,-1.3716,-1.3729,-1.3735,-1.3669,-1.3669,-1.3669,-1.3669,0,-1.3814,-1.3814,-1.3823,-1.3808,-1.3804,-1.381,-1.3785,-1.3785,-1.3768,-1.3752,-1.3757,-1.3741,-1.3733,-1.3733,-1.3717,-1.374,-1.3732,-1.3714,-1.3688,-1.3726,-1.3738,-1.3742,-1.3673,-1.3672,-1.3671,-1.3671,0,0,-1.3883,-1.3853,-1.3857,-1.385,-1.383,-1.3829,-1.3834,-1.3826,-1.3826,-1.3816,-1.3819,-1.3816,-1.3799,-1.3792,-1.3775,-1.3782,-1.3814,-1.3762,-1.3761,-1.3772,-1.3838,-1.3852,-1.3858,-1.38,-1.3801,-1.3802,-1.384,0,-1.3921,-1.3928,-1.3904,-1.3917,-1.3917,-1.3887,-1.3891,-1.3879,-1.3865,-1.3863,-1.3848,-1.3846,-1.3823,-1.3819,-1.3825,-1.3809,-1.3827,-1.3806,-1.3804,-1.3804,-1.3808,-1.3864,-1.3879,-1.3915,-1.3844,-1.3845,-1.3845,0,-1.3966,-1.3958,-1.3971,-1.395,-1.3949,-1.3954,-1.3945,-1.3943,-1.393,-1.3919,-1.3912,-1.3892,-1.3896,-1.3872,-1.3877,-1.3863,-1.3861,-1.3853,-1.3854,-1.3853,-1.3827,-1.3864,-1.3926,-1.3932,-1.3852,-1.3852,-1.3851,0,-1.4015,-1.4007,-1.4014,-1.4009,-1.3985,-1.3989,-1.3979,-1.3965,-1.3961,-1.3953,-1.3951,-1.3944,-1.394,-1.3935,-1.3913,-1.3898,-1.3921,-1.3895,-1.3912,-1.3913,-1.3918,-1.3918,-1.398,-1.3917,-1.3917,-1.3917,-1.3917,0,-1.406,-1.4069,-1.4036,-1.404,-1.4049,-1.4023,-1.4033,-1.402,-1.4008,-1.4009,-1.3982,-1.3984,-1.3955,-1.3954,-1.3937,-1.3944,-1.3943,-1.3934,-1.393,-1.3936,-1.3938,-1.3934,-1.3931,-1.3919,-1.3918,-1.3918,-1.3918,0,-1.4116,-1.4094,-1.4099,-1.4076,-1.4071,-1.4079,-1.4059,-1.4063,-1.4047,-1.4049,-1.4048,-1.4024,-1.4021,-1.3999,-1.3991,-1.398,-1.3993,-1.3984,-1.3998,-1.3995,-1.4013,-1.4012,-1.4075,-1.4082,-1.4015,-1.4016,-1.4016,0,-1.4146,-1.4152,-1.413,-1.4129,-1.412,-1.4119,-1.4115,-1.409,-1.4087,-1.4073,-1.4078,-1.4073,-1.4068,-1.4065,-1.4047,-1.4041,-1.4031,-1.4054,-1.403,-1.4037,-1.4031,-1.4031,-1.4032,-1.4059,-1.406,-1.406,-1.4061,0,-1.4201,-1.419,-1.4186,-1.4178,-1.4175,-1.4167,-1.4158,-1.4159,-1.4131,-1.413,-1.4127,-1.4123,-1.4115,-1.4111,-1.4102,-1.4092,-1.4072,-1.4069,-1.4072,-1.4079,-1.4087,-1.4083,-1.4012,-1.4067,-1.4066,-1.4066,-1.4066,-1.4065,-1.4245,-1.4249,-1.4234,-1.4231,-1.4221,-1.4214,-1.4215,-1.42,-1.4197,-1.4189,-1.4174,-1.4173,-1.416,-1.4146,-1.4138,-1.4137,-1.4125,-1.413,-1.4132,-1.4133,-1.4137,-1.4087,-1.4135,-1.4135,-1.4135,-1.4135,-1.4135,0,-1.4299,-1.4288,-1.4285,-1.4273,-1.4271,-1.4252,-1.4241,-1.424,-1.424,-1.4229,-1.4224,-1.4221,-1.4217,-1.4199,-1.4192,-1.4195,-1.4186,-1.4195,-1.4194,-1.4192,-1.4148,-1.4145,-1.4202,-1.4202,-1.4202,-1.4202,-1.4202,-1.4202,-1.4327,-1.4333,-1.4321,-1.4322,-1.4311,-1.431,-1.4305,-1.4298,-1.4289,-1.4287,-1.4283,-1.4271,-1.4257,-1.425,-1.4246,-1.424,-1.4239,-1.4251,-1.4243,-1.4202,-1.4195,-1.4189,-1.4187,-1.4251,-1.4251,-1.4287,-1.4287,-1.4288]},{"header":{"parameterUnit":"m.s-1","parameterCategory":1,"la1":30.2991,"la2":30.254,"lo1":-89.0895,"lo2":-89.0444,"dy":0.0017,"dx":0.0017,"nx":28,"ny":28,"refTime":"2024-03-11T03:00:00:Z","depth":0,"parameterNumber":3,"parameterNumberName":"V-component_of_WINDS"},"data":[0,0,0,0,0,0,0,0,0,0,0,0,0,0,0,0,0,0,0,0,0,0,0,0,0,0,0,0,0,0,0,0,0,0,0,0,0,0,0,0,0,0,0,0,0,0,0,0,0,0,0,0,0,0,0,0,0,0,3.2118,3.2118,0,3.2154,3.2154,3.2155,3.2148,3.2147,3.2146,3.2146,3.218,3.2182,3.2183,0,0,0,0,0,0,0,0,0,0,0,0,0,3.2039,3.204,3.2117,3.2118,3.2118,3.2154,3.2154,3.2155,3.2148,3.2147,3.2146,3.2145,3.218,3.2182,3.2184,0,0,0,0,0,0,0,0,0,0,0,0,0,3.2074,3.2041,3.2117,3.2119,3.212,3.2154,3.2155,3.2155,3.2148,3.2147,3.2146,3.2145,3.2179,3.2182,3.2184,3.2218,0,0,3.2191,3.2192,0,0,0,0,0,0,0,0,3.2072,3.2077,3.2118,3.2119,3.212,3.2145,3.2139,3.2176,3.2148,3.2137,3.2146,3.2145,3.2169,3.2172,3.2181,3.2219,3.2221,3.2191,3.2192,3.2193,3.2194,0,0,0,0,0,0,0,3.2069,3.2075,3.2132,3.2119,3.212,3.2117,3.2121,3.2146,3.2158,3.2138,3.2138,3.2142,3.217,3.2179,3.2182,3.2221,3.2191,3.2193,3.2194,3.2195,3.2288,3.2289,0,0,0,0,0,0,3.2067,3.2073,3.2131,3.2133,3.2093,3.2119,3.2124,3.2138,3.2158,3.216,3.2143,3.2142,3.2176,3.2179,3.2183,3.2224,3.2193,3.2196,3.2197,3.2287,3.2289,3.229,0,0,0,0,0,0,3.2065,3.2072,3.2129,3.2103,3.211,3.2122,3.2138,3.2139,3.2149,3.2162,3.2164,3.2151,3.2175,3.218,3.2209,3.2225,3.2197,3.2199,3.2286,3.2288,3.2289,3.2306,0,0,0,0,0,0,3.2063,3.2071,3.2085,3.2103,3.2112,3.2155,3.2139,3.2141,3.2153,3.2152,3.217,3.2172,3.2175,3.2206,3.2212,3.2228,3.2201,3.2285,3.2287,3.2289,3.2304,3.2308,3.2311,0,0,0,0,0,3.206,3.2088,3.2086,3.2093,3.2129,3.2156,3.2161,3.2165,3.2155,3.2168,3.2176,3.2171,3.2223,3.2209,3.2215,3.2232,3.2284,3.2286,3.2288,3.2302,3.2307,3.2311,0,0,0,0,0,0,3.207,3.209,3.2088,3.2123,3.2138,3.2155,3.2172,3.217,3.2188,3.2185,3.2189,3.2193,3.2222,3.223,3.2215,3.2266,3.2251,3.2255,3.226,3.2264,3.2268,3.2265,3.2202,0,0,0,0,0,3.2077,3.2098,3.2114,3.2143,3.2151,3.216,3.2172,3.2174,3.219,3.2196,3.2206,3.222,3.224,3.2252,3.2271,3.2305,3.2308,3.232,3.2323,3.2326,3.2329,3.2347,3.2352,3.2298,3.2298,3.2298,0,0,3.209,3.2103,3.2116,3.2145,3.2157,3.2179,3.2166,3.2189,3.2204,3.2199,3.2227,3.2235,3.2252,3.2283,3.2298,3.2291,3.2345,3.2329,3.2331,3.2333,3.235,3.2355,3.236,3.2299,3.2299,3.2299,0,0,3.2124,3.2137,3.2163,3.2175,3.2194,3.22,3.2206,3.2223,3.2229,3.2257,3.2254,3.2272,3.2305,3.2317,3.2327,3.2366,3.2362,3.2372,3.2391,3.2408,3.2413,3.2416,3.243,3.2434,3.2375,3.2376,3.2376,0,3.2138,3.2171,3.2176,3.2199,3.2212,3.2209,3.2234,3.2245,3.2269,3.2277,3.2269,3.2311,3.2322,3.2356,3.2365,3.2374,3.238,3.237,3.2412,3.2416,3.2419,3.2432,3.2437,3.2377,3.2377,3.2376,3.2376,0,3.2186,3.2209,3.2227,3.2251,3.2265,3.2289,3.2297,3.2311,3.2311,3.2318,3.2347,3.236,3.2381,3.2389,3.2389,3.2423,3.2418,3.2411,3.2397,3.2425,3.2437,3.2442,3.2378,3.2378,3.2377,3.2377,0,0,3.2228,3.2254,3.2261,3.2271,3.2292,3.2309,3.2332,3.2354,3.2365,3.2382,3.2401,3.2429,3.2423,3.2435,3.2436,3.2452,3.2481,3.2443,3.2443,3.2449,3.2518,3.2523,3.2528,3.2479,3.248,3.248,3.2516,0,3.2264,3.2307,3.2312,3.235,3.237,3.2368,3.2388,3.2402,3.2409,3.2427,3.2434,3.2454,3.2445,3.2452,3.2467,3.2474,3.2495,3.2472,3.2496,3.2496,3.2491,3.2535,3.254,3.2573,3.2521,3.2522,3.2522,0,3.2312,3.233,3.237,3.2388,3.2396,3.2415,3.2435,3.2452,3.2468,3.2472,3.2485,3.2485,3.2508,3.2493,3.2525,3.2509,3.2519,3.2524,3.2526,3.2528,3.2511,3.2537,3.2584,3.2589,3.253,3.2529,3.2529,0,3.2337,3.2372,3.2401,3.241,3.2431,3.2444,3.2453,3.2468,3.248,3.2497,3.2505,3.2524,3.2535,3.2549,3.2554,3.2543,3.2585,3.2571,3.2588,3.2588,3.2597,3.2596,3.2645,3.2604,3.2604,3.2604,3.2604,0,3.2377,3.2401,3.2412,3.243,3.2457,3.2462,3.2488,3.2496,3.251,3.2528,3.2527,3.2544,3.2549,3.2567,3.257,3.2596,3.26,3.2603,3.2604,3.2603,3.2603,3.2609,3.2607,3.2605,3.2605,3.2605,3.2605,0,3.241,3.2418,3.2449,3.2467,3.2472,3.2491,3.2505,3.2521,3.2528,3.2551,3.2557,3.2567,3.2588,3.2594,3.2618,3.2621,3.265,3.2649,3.2645,3.2645,3.2662,3.266,3.2716,3.2724,3.2679,3.2679,3.2679,0,3.2434,3.2453,3.2473,3.2485,3.2495,3.2516,3.2528,3.2534,3.2547,3.2567,3.258,3.2601,3.2618,3.2651,3.2659,3.2678,3.2677,3.2695,3.2679,3.2678,3.2676,3.2675,3.2676,3.2698,3.2699,3.2699,3.2699,0,3.2476,3.2479,3.2498,3.2519,3.2535,3.2551,3.2566,3.2577,3.2584,3.2599,3.2621,3.2634,3.2659,3.2679,3.2698,3.2706,3.2704,3.2704,3.2709,3.2708,3.2705,3.2706,3.2653,3.2703,3.2702,3.2702,3.2702,3.2702,3.2505,3.2521,3.2538,3.2559,3.2572,3.2586,3.2602,3.2611,3.263,3.2651,3.2653,3.2676,3.2691,3.2716,3.2726,3.2743,3.2738,3.2745,3.2746,3.2748,3.2749,3.2703,3.2747,3.2747,3.2747,3.2746,3.2746,0,3.2546,3.2557,3.2576,3.2599,3.2615,3.2612,3.2629,3.2643,3.2663,3.2678,3.2695,3.2719,3.2738,3.2749,3.2768,3.278,3.2779,3.2785,3.2784,3.2786,3.2753,3.2747,3.2785,3.2785,3.2785,3.2785,3.2785,3.2785,3.257,3.2597,3.2603,3.2636,3.2646,3.2669,3.2679,3.2692,3.2704,3.2731,3.2748,3.2755,3.2768,3.2788,3.2805,3.2808,3.2815,3.2821,3.2822,3.2792,3.2788,3.2784,3.2778,3.2822,3.2822,3.2853,3.2853,3.2854]}]]